VOI880 MMGL-KSAT

Flight info

Callsign VOI880
Flight time 1h 34m
Altitude 35000
Route OTOKI1B OTOKI J42 ZCL UT5 SLW UJ40 NLD DCT ZARPO DCT HFMAN CRVZA2
Aircraft A321/M-SDE3FGHIRWY/LB1

Departure

Time 2026-05-04 20:28
Airport Guadalajara International Airport (MMGL)

Arrival

Time 2026-05-04 22:02
Airport San Antonio International Airport (KSAT)
Time Latitude Longitude Altitude Speed Heading
2026-05-04 19:37 20.52432 -103.30073 5029 ft 0 kts 18°
2026-05-04 19:53 20.52426 -103.30075 5029 ft 2 kts 17°
2026-05-04 19:53 20.52407 -103.30081 5027 ft 2 kts 15°
2026-05-04 19:54 20.52392 -103.30085 5024 ft 3 kts 29°
2026-05-04 19:54 20.52380 -103.30097 5029 ft 3 kts 78°
2026-05-04 19:54 20.52380 -103.30117 5029 ft 3 kts 106°
2026-05-04 19:54 20.52383 -103.30128 5023 ft 1 kts 108°
2026-05-04 19:55 20.52384 -103.30130 5029 ft 0 kts 108°
2026-05-04 19:59 20.52382 -103.30125 5029 ft 2 kts 108°
2026-05-04 19:59 20.52368 -103.30079 5029 ft 12 kts 108°
2026-05-04 20:00 20.52309 -103.30027 5029 ft 13 kts 189°
2026-05-04 20:00 20.52226 -103.30058 5029 ft 13 kts 200°
2026-05-04 20:00 20.52162 -103.30016 5028 ft 13 kts 117°
2026-05-04 20:00 20.52129 -103.29938 5026 ft 3 kts 115°
2026-05-04 20:01 20.52129 -103.29937 5026 ft 0 kts 115°
2026-05-04 20:01 20.52126 -103.29932 5027 ft 3 kts 115°
2026-05-04 20:01 20.52091 -103.29851 5029 ft 19 kts 115°
2026-05-04 20:01 20.52037 -103.29722 5029 ft 19 kts 114°
2026-05-04 20:02 20.51981 -103.29590 5029 ft 20 kts 114°
2026-05-04 20:02 20.51913 -103.29479 5030 ft 11 kts 127°
2026-05-04 20:02 20.51904 -103.29466 5030 ft 0 kts 127°
2026-05-04 20:25 20.51900 -103.29460 5027 ft 5 kts 127°
2026-05-04 20:26 20.51848 -103.29386 5027 ft 20 kts 127°
2026-05-04 20:26 20.51762 -103.29266 5027 ft 14 kts 127°
2026-05-04 20:26 20.51674 -103.29245 5029 ft 15 kts 204°
2026-05-04 20:26 20.51578 -103.29291 5029 ft 16 kts 204°
2026-05-04 20:27 20.51487 -103.29334 5028 ft 12 kts 204°
2026-05-04 20:27 20.51464 -103.29401 5025 ft 11 kts 291°
2026-05-04 20:27 20.51519 -103.29536 5029 ft 44 kts 293°
2026-05-04 20:27 20.51734 -103.30048 5027 ft 105 kts 295°
2026-05-04 20:28 20.52090 -103.30899 5031 ft 142 kts 294°
2026-05-04 20:28 20.52530 -103.31956 5031 ft 168 kts 292°
2026-05-04 20:28 20.52999 -103.33084 5623 ft 158 kts 292°
2026-05-04 20:28 20.53453 -103.34163 6063 ft 162 kts 294°
2026-05-04 20:29 20.53920 -103.35269 6480 ft 165 kts 292°
2026-05-04 20:29 20.54396 -103.36397 6940 ft 169 kts 294°
2026-05-04 20:29 20.54903 -103.37600 7051 ft 186 kts 294°
2026-05-04 20:29 20.55459 -103.38918 7179 ft 203 kts 294°
2026-05-04 20:30 20.56044 -103.40315 7301 ft 215 kts 292°
2026-05-04 20:30 20.56669 -103.41811 7383 ft 228 kts 292°
2026-05-04 20:30 20.57335 -103.43407 7591 ft 239 kts 293°
2026-05-04 20:30 20.58023 -103.45047 7973 ft 245 kts 294°
2026-05-04 20:31 20.58730 -103.46719 8498 ft 250 kts 295°
2026-05-04 20:31 20.59813 -103.48231 8655 ft 269 kts 320°
2026-05-04 20:31 20.61525 -103.49170 8926 ft 285 kts 345°
2026-05-04 20:31 20.63533 -103.49203 9284 ft 298 kts 12°
2026-05-04 20:32 20.65417 -103.48203 9688 ft 307 kts 32°
2026-05-04 20:32 20.67201 -103.46896 9985 ft 318 kts 33°
2026-05-04 20:32 20.69029 -103.45545 10414 ft 320 kts 32°
2026-05-04 20:32 20.70859 -103.44191 10915 ft 321 kts 32°
2026-05-04 20:33 20.72708 -103.42829 11381 ft 324 kts 33°
2026-05-04 20:33 20.74572 -103.41456 11872 ft 325 kts 32°
2026-05-04 20:33 20.76424 -103.40099 12334 ft 329 kts 33°
2026-05-04 20:33 20.78322 -103.38712 12817 ft 331 kts 32°
2026-05-04 20:34 20.80236 -103.37316 13270 ft 334 kts 32°
2026-05-04 20:34 20.81532 -103.36370 13600 ft 335 kts 33°
2026-05-04 20:34 20.83474 -103.34951 13999 ft 339 kts 33°
2026-05-04 20:34 20.85393 -103.33545 14451 ft 338 kts 33°
2026-05-04 20:35 20.87337 -103.32119 14909 ft 339 kts 34°
2026-05-04 20:35 20.89278 -103.30697 15402 ft 339 kts 34°
2026-05-04 20:35 20.91228 -103.29270 15892 ft 339 kts 34°
2026-05-04 20:35 20.93178 -103.27842 16379 ft 340 kts 35°
2026-05-04 20:36 20.95130 -103.26410 16883 ft 340 kts 35°
2026-05-04 20:36 20.97086 -103.24975 17369 ft 341 kts 35°
2026-05-04 20:36 20.99052 -103.23532 17675 ft 348 kts 35°
2026-05-04 20:36 21.01087 -103.22047 17807 ft 360 kts 33°
2026-05-04 20:37 21.03351 -103.20784 17944 ft 373 kts 24°
2026-05-04 20:37 21.05833 -103.19862 18064 ft 385 kts 19°
2026-05-04 20:37 21.08412 -103.18956 18230 ft 394 kts 19°
2026-05-04 20:37 21.11033 -103.18034 18534 ft 398 kts 19°
2026-05-04 20:38 21.13676 -103.17102 18877 ft 401 kts 19°
2026-05-04 20:38 21.16337 -103.16164 19243 ft 404 kts 20°
2026-05-04 20:38 21.19008 -103.15219 19633 ft 406 kts 20°
2026-05-04 20:38 21.21701 -103.14266 20006 ft 409 kts 19°
2026-05-04 20:39 21.24375 -103.13320 20373 ft 411 kts 19°
2026-05-04 20:39 21.27134 -103.12342 20772 ft 413 kts 19°
2026-05-04 20:39 21.29866 -103.11375 21113 ft 416 kts 18°
2026-05-04 20:39 21.32590 -103.10415 21448 ft 419 kts 18°
2026-05-04 20:40 21.35402 -103.09528 21785 ft 421 kts 15°
2026-05-04 20:40 21.38251 -103.08753 22110 ft 424 kts 14°
2026-05-04 20:40 21.41129 -103.08042 22434 ft 426 kts 13°
2026-05-04 20:40 21.44031 -103.07349 22749 ft 428 kts 13°
2026-05-04 20:41 21.46943 -103.06644 23063 ft 431 kts 13°
2026-05-04 20:41 21.49872 -103.05918 23368 ft 433 kts 13°
2026-05-04 20:41 21.52814 -103.05167 23633 ft 435 kts 13°
2026-05-04 20:41 21.55758 -103.04397 23898 ft 437 kts 13°
2026-05-04 20:42 21.58716 -103.03613 24167 ft 438 kts 13°
2026-05-04 20:42 21.61682 -103.02828 24440 ft 440 kts 13°
2026-05-04 20:42 21.64663 -103.02043 24690 ft 442 kts 13°
2026-05-04 20:42 21.67660 -103.01255 24946 ft 444 kts 13°
2026-05-04 20:43 21.70660 -103.00470 25209 ft 445 kts 12°
2026-05-04 20:43 21.73675 -102.99680 25468 ft 447 kts 12°
2026-05-04 20:43 21.76702 -102.98891 25716 ft 448 kts 12°
2026-05-04 20:43 21.79737 -102.98100 25976 ft 450 kts 11°
2026-05-04 20:44 21.82783 -102.97303 26239 ft 451 kts 12°
2026-05-04 20:44 21.85840 -102.96503 26498 ft 453 kts 12°
2026-05-04 20:44 21.88906 -102.95700 26741 ft 454 kts 12°
2026-05-04 20:44 21.91981 -102.94891 26988 ft 456 kts 11°
2026-05-04 20:45 21.95069 -102.94079 27248 ft 457 kts 11°
2026-05-04 20:45 21.98166 -102.93267 27460 ft 459 kts 11°
2026-05-04 20:45 22.01277 -102.92455 27690 ft 461 kts 11°
2026-05-04 20:45 22.04401 -102.91640 27912 ft 462 kts 11°
2026-05-04 20:46 22.07536 -102.90826 28147 ft 464 kts 10°
2026-05-04 20:46 22.10673 -102.90006 28409 ft 465 kts 11°
2026-05-04 20:46 22.13824 -102.89178 28655 ft 466 kts 11°
2026-05-04 20:46 22.16942 -102.88359 28888 ft 467 kts 11°
2026-05-04 20:47 22.20112 -102.87526 29127 ft 469 kts 11°
2026-05-04 20:47 22.23285 -102.86687 29361 ft 470 kts 11°
2026-05-04 20:47 22.26474 -102.85841 29591 ft 472 kts 11°
2026-05-04 20:47 22.29673 -102.84990 29817 ft 474 kts 11°
2026-05-04 20:48 22.32874 -102.84138 30093 ft 474 kts 11°
2026-05-04 20:48 22.36079 -102.83287 30360 ft 473 kts 11°
2026-05-04 20:48 22.39281 -102.82441 30641 ft 473 kts 11°
2026-05-04 20:48 22.42472 -102.81602 30909 ft 473 kts 11°
2026-05-04 20:49 22.45670 -102.80760 31186 ft 472 kts 11°
2026-05-04 20:49 22.48864 -102.79917 31442 ft 472 kts 11°
2026-05-04 20:49 22.52051 -102.79071 31696 ft 472 kts 11°
2026-05-04 20:49 22.55238 -102.78224 31963 ft 472 kts 11°
2026-05-04 20:50 22.58427 -102.77379 32273 ft 471 kts 11°
2026-05-04 20:50 22.61609 -102.76537 32584 ft 471 kts 10°
2026-05-04 20:50 22.64797 -102.75693 32878 ft 471 kts 10°
2026-05-04 20:50 22.67982 -102.74847 33161 ft 472 kts 10°
2026-05-04 20:51 22.71167 -102.73996 33446 ft 471 kts 10°
2026-05-04 20:51 22.74351 -102.73145 33733 ft 471 kts 10°
2026-05-04 20:51 22.77538 -102.72296 34019 ft 471 kts 10°
2026-05-04 20:51 22.80677 -102.71463 34294 ft 471 kts 10°
2026-05-04 20:52 22.83866 -102.70618 34519 ft 471 kts 10°
2026-05-04 20:52 22.87033 -102.69731 34756 ft 471 kts 14°
2026-05-04 20:52 22.90078 -102.68401 35000 ft 474 kts 24°
2026-05-04 20:52 22.92948 -102.66613 35214 ft 476 kts 27°
2026-05-04 20:53 22.98606 -102.62929 35256 ft 473 kts 27°
2026-05-04 20:53 23.04261 -102.59268 35157 ft 472 kts 27°
2026-05-04 20:54 23.09912 -102.55607 35059 ft 472 kts 27°
2026-05-04 20:54 23.15515 -102.51962 34953 ft 472 kts 27°
2026-05-04 20:55 23.21152 -102.48287 34866 ft 472 kts 27°
2026-05-04 20:55 23.26793 -102.44609 34863 ft 472 kts 27°
2026-05-04 20:56 23.32440 -102.40935 34861 ft 473 kts 27°
2026-05-04 20:56 23.38090 -102.37249 34863 ft 474 kts 27°
2026-05-04 20:57 23.43746 -102.33552 34865 ft 474 kts 27°
2026-05-04 20:57 23.49404 -102.29853 34868 ft 474 kts 27°
2026-05-04 20:58 23.55068 -102.26147 34874 ft 475 kts 27°
2026-05-04 20:58 23.60696 -102.22458 34888 ft 475 kts 27°
2026-05-04 20:59 23.66360 -102.18747 34888 ft 475 kts 27°
2026-05-04 20:59 23.72022 -102.15021 34884 ft 475 kts 27°
2026-05-04 21:00 23.77685 -102.11291 34880 ft 475 kts 27°
2026-05-04 21:00 23.83344 -102.07569 34878 ft 475 kts 27°
2026-05-04 21:01 23.89005 -102.03842 34879 ft 475 kts 27°
2026-05-04 21:01 23.94658 -102.00103 34892 ft 475 kts 27°
2026-05-04 21:02 24.00314 -101.96363 34887 ft 475 kts 26°
2026-05-04 21:02 24.05971 -101.92629 34886 ft 475 kts 26°
2026-05-04 21:03 24.11589 -101.88923 34893 ft 475 kts 26°
2026-05-04 21:03 24.17245 -101.85181 34892 ft 475 kts 26°
2026-05-04 21:04 24.22898 -101.81436 34894 ft 475 kts 26°
2026-05-04 21:04 24.28556 -101.77683 34894 ft 475 kts 26°
2026-05-04 21:05 24.34207 -101.73933 34896 ft 475 kts 26°
2026-05-04 21:05 24.39861 -101.70173 34894 ft 475 kts 27°
2026-05-04 21:06 24.45509 -101.66406 34896 ft 475 kts 26°
2026-05-04 21:06 24.51157 -101.62638 34896 ft 475 kts 26°
2026-05-04 21:07 24.56811 -101.58863 34912 ft 475 kts 26°
2026-05-04 21:07 24.62465 -101.55101 34906 ft 475 kts 26°
2026-05-04 21:08 24.68112 -101.51334 34895 ft 474 kts 26°
2026-05-04 21:08 24.73719 -101.47581 34898 ft 474 kts 26°
2026-05-04 21:09 24.79353 -101.43806 34896 ft 474 kts 26°
2026-05-04 21:09 24.84990 -101.40025 34904 ft 474 kts 26°
2026-05-04 21:10 24.90628 -101.36240 34920 ft 474 kts 26°
2026-05-04 21:10 24.96278 -101.32447 34913 ft 475 kts 26°
2026-05-04 21:11 25.01925 -101.28647 34913 ft 475 kts 26°
2026-05-04 21:11 25.07568 -101.24837 34912 ft 475 kts 26°
2026-05-04 21:12 25.13212 -101.21032 34921 ft 475 kts 26°
2026-05-04 21:12 25.18850 -101.17226 34920 ft 475 kts 26°
2026-05-04 21:13 25.24495 -101.13408 34940 ft 476 kts 26°
2026-05-04 21:13 25.30145 -101.09586 34933 ft 476 kts 26°
2026-05-04 21:14 25.35761 -101.05784 35029 ft 477 kts 26°
2026-05-04 21:14 25.41460 -101.01922 35079 ft 477 kts 26°
2026-05-04 21:15 25.47122 -100.98082 35128 ft 477 kts 26°
2026-05-04 21:15 25.52783 -100.94234 35131 ft 478 kts 26°
2026-05-04 21:16 25.58435 -100.90350 35137 ft 479 kts 26°
2026-05-04 21:16 25.64051 -100.86355 35118 ft 480 kts 27°
2026-05-04 21:17 25.69657 -100.82333 35065 ft 480 kts 27°
2026-05-04 21:17 25.75248 -100.78351 35007 ft 480 kts 27°
2026-05-04 21:18 25.80918 -100.74326 34951 ft 481 kts 27°
2026-05-04 21:18 25.86515 -100.70351 34929 ft 480 kts 26°
2026-05-04 21:19 25.92147 -100.66348 34921 ft 481 kts 26°
2026-05-04 21:19 25.97787 -100.62322 34916 ft 482 kts 26°
2026-05-04 21:20 26.03423 -100.58292 34910 ft 481 kts 26°
2026-05-04 21:20 26.09066 -100.54265 34921 ft 482 kts 26°
2026-05-04 21:21 26.14706 -100.50241 34909 ft 482 kts 26°
2026-05-04 21:21 26.20354 -100.46189 34923 ft 483 kts 26°
2026-05-04 21:22 26.25055 -100.42819 34920 ft 483 kts 25°
2026-05-04 21:22 26.30709 -100.38767 34920 ft 483 kts 26°
2026-05-04 21:23 26.36367 -100.34710 34912 ft 483 kts 26°
2026-05-04 21:23 26.42934 -100.29981 34915 ft 484 kts 26°
2026-05-04 21:24 26.47675 -100.26571 34920 ft 484 kts 26°
2026-05-04 21:24 26.53334 -100.22491 34926 ft 483 kts 25°
2026-05-04 21:25 26.58973 -100.18418 34930 ft 482 kts 25°
2026-05-04 21:25 26.64561 -100.14371 34932 ft 481 kts 25°
2026-05-04 21:26 26.70166 -100.10309 34922 ft 480 kts 25°
2026-05-04 21:26 26.75763 -100.06250 34924 ft 479 kts 25°
2026-05-04 21:27 26.81361 -100.02189 34927 ft 479 kts 25°
2026-05-04 21:27 26.86917 -99.98148 34916 ft 473 kts 26°
2026-05-04 21:28 26.92430 -99.94147 34920 ft 472 kts 26°
2026-05-04 21:28 26.97941 -99.90149 34921 ft 472 kts 26°
2026-05-04 21:29 27.03446 -99.86136 34922 ft 472 kts 26°
2026-05-04 21:29 27.08941 -99.82113 34930 ft 471 kts 26°
2026-05-04 21:30 27.14439 -99.78091 34952 ft 471 kts 26°
2026-05-04 21:30 27.19900 -99.74099 34941 ft 470 kts 26°
2026-05-04 21:31 27.28130 -99.68077 34939 ft 470 kts 26°
2026-05-04 21:32 27.33604 -99.64068 34934 ft 470 kts 26°
2026-05-04 21:32 27.39075 -99.60043 34937 ft 469 kts 26°
2026-05-04 21:33 27.44603 -99.56189 34954 ft 462 kts 18°
2026-05-04 21:33 27.50474 -99.53339 34950 ft 460 kts 18°
2026-05-04 21:34 27.55996 -99.49510 34937 ft 469 kts 26°
2026-05-04 21:34 27.61436 -99.45437 34951 ft 469 kts 26°
2026-05-04 21:35 27.66831 -99.41396 34792 ft 468 kts 26°
2026-05-04 21:35 27.69539 -99.39365 34559 ft 466 kts 26°
2026-05-04 21:35 27.72235 -99.37339 34178 ft 465 kts 26°
2026-05-04 21:35 27.74936 -99.35313 33536 ft 466 kts 26°
2026-05-04 21:36 27.77633 -99.33287 33034 ft 463 kts 26°
2026-05-04 21:36 27.80309 -99.31270 32509 ft 461 kts 26°
2026-05-04 21:36 27.82965 -99.29268 32000 ft 458 kts 26°
2026-05-04 21:36 27.85611 -99.27272 31478 ft 455 kts 26°
2026-05-04 21:37 27.88235 -99.25287 30973 ft 453 kts 26°
2026-05-04 21:37 27.90847 -99.23310 30456 ft 451 kts 26°
2026-05-04 21:37 27.93474 -99.21422 29946 ft 443 kts 21°
2026-05-04 21:37 27.96168 -99.19754 29409 ft 439 kts 21°
2026-05-04 21:38 27.98828 -99.18107 28933 ft 434 kts 21°
2026-05-04 21:38 28.01465 -99.16473 28465 ft 430 kts 21°
2026-05-04 21:38 28.04079 -99.14856 27996 ft 426 kts 21°
2026-05-04 21:38 28.06662 -99.13260 27565 ft 422 kts 20°
2026-05-04 21:39 28.09221 -99.11674 27100 ft 419 kts 20°
2026-05-04 21:39 28.11769 -99.10092 26659 ft 416 kts 20°
2026-05-04 21:39 28.14299 -99.08519 26230 ft 413 kts 20°
2026-05-04 21:39 28.16778 -99.06976 25809 ft 411 kts 20°
2026-05-04 21:40 28.19278 -99.05424 25390 ft 409 kts 20°
2026-05-04 21:40 28.21714 -99.03728 24967 ft 413 kts 25°
2026-05-04 21:40 28.24095 -99.01910 24536 ft 412 kts 25°
2026-05-04 21:40 28.26467 -99.00098 24109 ft 412 kts 25°
2026-05-04 21:41 28.28848 -98.98275 23674 ft 411 kts 25°
2026-05-04 21:41 28.31220 -98.96457 23173 ft 411 kts 25°
2026-05-04 21:41 28.33581 -98.94650 22718 ft 408 kts 25°
2026-05-04 21:41 28.35932 -98.92851 22255 ft 406 kts 26°
2026-05-04 21:42 28.38269 -98.91056 21807 ft 404 kts 26°
2026-05-04 21:42 28.40597 -98.89270 21324 ft 403 kts 26°
2026-05-04 21:42 28.42914 -98.87493 20851 ft 401 kts 26°
2026-05-04 21:42 28.45225 -98.85722 20384 ft 400 kts 26°
2026-05-04 21:43 28.47529 -98.83960 19910 ft 398 kts 26°
2026-05-04 21:43 28.49822 -98.82205 19438 ft 397 kts 26°
2026-05-04 21:43 28.52100 -98.80458 18966 ft 395 kts 27°
2026-05-04 21:43 28.54343 -98.78729 18501 ft 394 kts 27°
2026-05-04 21:44 28.56607 -98.76980 18083 ft 390 kts 27°
2026-05-04 21:44 28.58848 -98.75250 17538 ft 388 kts 27°
2026-05-04 21:44 28.61071 -98.73536 17056 ft 385 kts 27°
2026-05-04 21:44 28.63282 -98.71833 16592 ft 382 kts 28°
2026-05-04 21:45 28.65479 -98.70141 16137 ft 379 kts 28°
2026-05-04 21:45 28.67655 -98.68464 15688 ft 376 kts 28°
2026-05-04 21:45 28.69815 -98.66801 15243 ft 373 kts 28°
2026-05-04 21:45 28.71954 -98.65151 14799 ft 370 kts 28°
2026-05-04 21:46 28.74077 -98.63510 14358 ft 368 kts 28°
2026-05-04 21:46 28.76186 -98.61876 13925 ft 365 kts 29°
2026-05-04 21:46 28.78283 -98.60251 13464 ft 363 kts 29°
2026-05-04 21:46 28.80363 -98.58642 13012 ft 359 kts 29°
2026-05-04 21:47 28.82416 -98.57051 12622 ft 354 kts 30°
2026-05-04 21:47 28.84481 -98.55643 12534 ft 336 kts 18°
2026-05-04 21:47 28.86647 -98.54881 12414 ft 317 kts
2026-05-04 21:47 28.88786 -98.54704 12215 ft 304 kts 355°
2026-05-04 21:48 28.90893 -98.54682 11834 ft 301 kts 355°
2026-05-04 21:48 28.92981 -98.54662 11268 ft 299 kts 356°
2026-05-04 21:48 28.95050 -98.54639 10815 ft 295 kts 356°
2026-05-04 21:48 28.97094 -98.54611 10428 ft 294 kts 357°
2026-05-04 21:49 28.99137 -98.54582 10098 ft 292 kts 357°
2026-05-04 21:49 29.01140 -98.54554 9791 ft 290 kts 358°
2026-05-04 21:49 29.03154 -98.54527 9419 ft 289 kts 357°
2026-05-04 21:49 29.05156 -98.54501 9046 ft 288 kts 358°
2026-05-04 21:50 29.07162 -98.54475 8635 ft 287 kts 357°
2026-05-04 21:50 29.09156 -98.54452 8115 ft 288 kts 358°
2026-05-04 21:50 29.11156 -98.54436 7748 ft 288 kts 358°
2026-05-04 21:50 29.13159 -98.54446 7441 ft 286 kts 356°
2026-05-04 21:51 29.15163 -98.54472 7303 ft 289 kts 355°
2026-05-04 21:51 29.17173 -98.54499 7199 ft 289 kts 356°
2026-05-04 21:51 29.19185 -98.54526 7079 ft 289 kts 357°
2026-05-04 21:51 29.21200 -98.54554 6958 ft 290 kts 356°
2026-05-04 21:52 29.23218 -98.54577 6855 ft 290 kts 358°
2026-05-04 21:52 29.25234 -98.54597 6738 ft 290 kts 356°
2026-05-04 21:52 29.27252 -98.54614 6634 ft 291 kts 358°
2026-05-04 21:52 29.29271 -98.54628 6515 ft 287 kts 355°
2026-05-04 21:53 29.31266 -98.54643 6400 ft 287 kts 357°
2026-05-04 21:53 29.33266 -98.54659 6251 ft 287 kts 357°
2026-05-04 21:53 29.35271 -98.54674 6128 ft 288 kts 356°
2026-05-04 21:53 29.37251 -98.54690 6000 ft 287 kts 357°
2026-05-04 21:54 29.39256 -98.54708 5958 ft 290 kts 358°
2026-05-04 21:54 29.41266 -98.54727 5963 ft 288 kts 356°
2026-05-04 21:54 29.43223 -98.54744 5955 ft 274 kts 358°
2026-05-04 21:54 29.45076 -98.54759 5959 ft 263 kts 357°
2026-05-04 21:55 29.46894 -98.54809 5961 ft 260 kts 349°
2026-05-04 21:55 29.48594 -98.55406 5957 ft 253 kts 327°
2026-05-04 21:55 29.49961 -98.56643 5961 ft 250 kts 309°
2026-05-04 21:55 29.51087 -98.58114 5853 ft 243 kts 308°
2026-05-04 21:56 29.52200 -98.59556 5454 ft 242 kts 307°
2026-05-04 21:56 29.53327 -98.61023 5046 ft 246 kts 308°
2026-05-04 21:56 29.54462 -98.62497 4691 ft 244 kts 307°
2026-05-04 21:56 29.55558 -98.63915 4561 ft 230 kts 307°
2026-05-04 21:57 29.56573 -98.65228 4380 ft 217 kts 306°
2026-05-04 21:57 29.57630 -98.66503 3926 ft 221 kts 317°
2026-05-04 21:57 29.59033 -98.67188 3530 ft 226 kts 351°
2026-05-04 21:57 29.60565 -98.66962 3121 ft 223 kts 24°
2026-05-04 21:58 29.61742 -98.65895 2965 ft 215 kts 56°
2026-05-04 21:58 29.62310 -98.64348 2965 ft 208 kts 88°
2026-05-04 21:58 29.62443 -98.62688 2976 ft 210 kts 90°
2026-05-04 21:58 29.62535 -98.61022 2959 ft 207 kts 99°
2026-05-04 21:59 29.62272 -98.59440 2967 ft 198 kts 115°
2026-05-04 21:59 29.61616 -98.58084 2898 ft 192 kts 134°
2026-05-04 21:59 29.60761 -98.56924 2703 ft 188 kts 137°
2026-05-04 21:59 29.59898 -98.55806 2475 ft 187 kts 137°
2026-05-04 22:00 29.59070 -98.54735 2248 ft 169 kts 137°
2026-05-04 22:00 29.58326 -98.53771 2046 ft 152 kts 138°
2026-05-04 22:00 29.57636 -98.52884 1856 ft 146 kts 138°
2026-05-04 22:00 29.56969 -98.52024 1652 ft 144 kts 136°
2026-05-04 22:01 29.56306 -98.51168 1459 ft 142 kts 137°
2026-05-04 22:01 29.55639 -98.50329 1301 ft 142 kts 137°
2026-05-04 22:01 29.54981 -98.49477 1099 ft 143 kts 136°
2026-05-04 22:01 29.54313 -98.48611 838 ft 148 kts 132°
2026-05-04 22:02 29.53687 -98.47816 799 ft 110 kts 130°
2026-05-04 22:02 29.53296 -98.47303 798 ft 61 kts 131°
2026-05-04 22:02 29.53131 -98.47088 798 ft 11 kts 131°
2026-05-04 22:02 29.53087 -98.47057 803 ft 8 kts 168°
2026-05-04 22:03 29.53043 -98.47083 777 ft 8 kts 218°
2026-05-04 22:03 29.52992 -98.47089 793 ft 8 kts 150°
2026-05-04 22:03 29.52950 -98.47039 793 ft 9 kts 131°
2026-05-04 22:03 29.52905 -98.46980 793 ft 10 kts 131°
2026-05-04 22:04 29.52855 -98.46915 793 ft 12 kts 131°
2026-05-04 22:04 29.52799 -98.46844 794 ft 13 kts 132°
2026-05-04 22:04 29.52735 -98.46787 794 ft 11 kts 172°
2026-05-04 22:04 29.52666 -98.46824 794 ft 12 kts 216°
2026-05-04 22:05 29.52601 -98.46885 794 ft 13 kts 220°
2026-05-04 22:05 29.52531 -98.46954 794 ft 14 kts 221°
2026-05-04 22:05 29.52478 -98.47007 794 ft 8 kts 223°
2026-05-04 22:05 29.52474 -98.47064 794 ft 8 kts 305°
2026-05-04 22:06 29.52520 -98.47107 794 ft 6 kts 326°
2026-05-04 22:06 29.52545 -98.47126 793 ft 5 kts 326°
2026-05-04 22:06 29.52553 -98.47132 793 ft 1 kts 327°